Weather in Gulnar

Turkey     36°20′10″N   33°24′23″E
temp.,
°C
wind,
m/s
gust,
m/s
humid.,
%
clouds,
%
prec.,
mm/h
press.,
hPa
HPBL,
m
16 june, wed
wed1600:00+15n22880 0.0 101028
03:00+14nnw11830 0.0 101025
06:00+14nnw11860 0.0 101036
09:00+20ssw45610 0.0 1010907
12:00+22sw1011520 0.0 10101306
15:00+22sw1112510 0.0 10091102
18:00+20sw55580 0.0 1010562
21:00+16wnw33740 0.0 101151
17 june, thu
thu1700:00+18nnw44420 0.0 101348
03:00+17n33470 0.0 101329
06:00+16nne22570 0.0 101426
09:00+23se12350 0.0 10141126
12:00+24s53481 0.0 1014862
15:00+25ssw54410 0.0 1014872
18:00+24ssw44430 0.0 1014466
21:00+19nw22610 0.0 101422
18 june, fri
fri1800:00+21nnw33440 0.0 101427
03:00+21n44400 0.0 101345
06:00+20n33450 0.0 101343
09:00+26wsw03330 0.0 1013907
12:00+28ssw45360 0.0 10121514
15:00+28ssw54400 0.0 1011737
18:00+26sw44450 0.0 1010409
21:00+21nnw11630 0.0 101016
19 june, sat
sat1900:00+23n22490 0.0 101018
03:00+19ne11580 0.0 100918
06:00+19nnw01610 0.0 101022
09:00+25s31500 0.0 1010538
12:00+28s53490 0.0 1010768
15:00+28ssw55440 0.0 1009619
18:00+27sw35390 0.0 1008444
21:00+19nw12620 0.0 100923
20 june, sun
sun2000:00+18n11620 0.0 100922
03:00+16e11690 0.0 101019
06:00+16ne11901 0.0 101129
09:00+24s31540 0.0 1011620
12:00+27s64450 0.0 1011893
15:00+27s54340 0.0 1010809
18:00+26ssw33300 0.0 1010557
21:00+17w11720 0.0 101120